Latest Coastal Weather Observations for Dum In Mirrie

IDD60701

Issued at 6:01 pm CST Wednesday 24 August 2016 (issued every 10 minutes, with the page automatically refreshed every 10 minutes)

About coastal observations | Map of coastal stations | Coastal observations for NT | Marine services | Other Formats
Station Details ID: 014277 Name: DUM IN MIRRIE AIRSTRIP Lat: -12.63 Lon: 130.37 Height: 3.5 m
Data from the previous 72 hours. | See also: Recent months at Dum In Mirrie
Date/Time
CST
Temp
°C
Wind Pressure Rain since
9am
mm
Weather Cloud Vis
km
Sea
Height
m
Swell
Dir  Spd
kts
Gust
kts
hPa Trend Height
m
Period
s
Dir
24/06:00pm 27.7 WSW 6 11 1008.3 - 0.0 - - - - - - -
24/05:30pm 28.2 WSW 6 11 1008.1 - 0.0 - - - - - - -
24/05:00pm 28.7 WSW 5 10 1007.8 - 0.0 - - - - - - -
24/04:30pm 28.9 WSW 7 12 1007.7 - 0.0 - - - - - - -
24/04:00pm 28.9 WSW 9 12 1007.7 - 0.0 - - - - - - -
24/03:30pm 29.4 W 9 13 1007.8 - 0.0 - - - - - - -
24/03:00pm 29.3 W 8 12 1008.0 - 0.0 - - - - - - -
24/02:30pm 29.4 W 7 10 1008.3 - 0.0 - - - - - - -
24/02:00pm 30.3 WSW 5 8 1008.6 - 0.0 - - - - - - -
24/01:30pm 29.7 WSW 5 8 1009.2 - 0.0 - - - - - - -
24/01:00pm 29.5 WSW 6 11 1009.8 - 0.0 - - - - - - -
24/12:30pm 29.1 W 6 9 1010.1 - 0.0 - - - - - - -
24/12:00pm 29.3 WSW 5 8 1010.5 - 0.0 - - - - - - -
24/11:30am 28.8 W 6 8 1010.9 - 0.0 - - - - - - -
24/11:00am 28.6 W 6 7 1011.3 - 0.0 - - - - - - -
24/10:30am 28.5 WSW 6 7 1011.7 - 0.0 - - - - - - -
24/10:00am 28.7 WSW 5 7 1011.7 - 0.0 - - - - - - -
24/09:30am 28.9 WNW 3 5 1011.6 - 0.0 - - - - - - -
24/09:00am 28.5 WNW 3 6 1011.4 - 0.0 - - - - - - -
24/08:30am 27.1 NW 2 4 1011.3 - 0.0 - - - - - - -
24/08:00am 26.4 NW 2 4 1010.9 - 0.0 - - - - - - -
24/07:30am 23.3 NNW 2 4 1010.6 - 0.0 - - - - - - -
24/07:00am 22.0 NW 2 4 1010.3 - 0.0 - - - - - - -
24/06:30am 21.9 NNW 1 2 1010.0 - 0.0 - - - - - - -
24/06:00am 22.4 CALM 0 0 1009.7 - 0.0 - - - - - - -
24/05:30am 22.2 N 2 2 1009.6 - 0.0 - - - - - - -
24/05:00am 21.9 CALM 0 0 1009.5 - 0.0 - - - - - - -
24/04:30am 21.5 CALM 0 0 1009.3 - 0.0 - - - - - - -
24/04:00am 20.4 CALM 0 0 1009.3 - 0.0 - - - - - - -
24/03:30am 20.8 CALM 0 0 1009.3 - 0.0 - - - - - - -
24/03:00am 21.3 CALM 0 0 1009.3 - 0.0 - - - - - - -
24/02:30am 21.4 CALM 0 0 1009.3 - 0.0 - - - - - - -
24/02:00am 21.3 CALM 0 0 1009.4 - 0.0 - - - - - - -
24/01:30am 22.1 CALM 0 0 1009.4 - 0.0 - - - - - - -
24/01:00am 22.4 CALM 0 0 1009.4 - 0.0 - - - - - - -
24/12:30am 22.6 CALM 0 0 1009.6 - 0.0 - - - - - - -
24/12:00am 23.8 CALM 0 0 1009.5 - 0.0 - - - - - - -
 
Date/Time
CST
Temp
°C
Wind Pressure Rain since
9am
mm
Weather Cloud Vis
km
Sea
Height
m
Swell
Dir  Spd
kts
Gust
kts
hPa Trend Height
m
Period
s
Dir
23/11:30pm 25.5 SW 2 4 1009.5 - 0.0 - - - - - - -
23/11:00pm 25.9 SW 3 5 1009.5 - 0.0 - - - - - - -
23/10:30pm 25.9 SW 2 5 1009.5 - 0.0 - - - - - - -
23/10:00pm 26.0 WSW 2 5 1009.5 - 0.0 - - - - - - -
23/09:30pm 26.3 W 4 7 1009.5 - 0.0 - - - - - - -
23/09:00pm 26.3 WSW 4 7 1009.3 - 0.0 - - - - - - -
23/08:30pm 26.3 WSW 3 8 1009.1 - 0.0 - - - - - - -
23/08:00pm 26.4 W 4 7 1008.8 - 0.0 - - - - - - -
23/07:30pm 26.3 WNW 3 7 1008.5 - 0.0 - - - - - - -
23/07:00pm 26.5 WNW 3 6 1008.1 - 0.0 - - - - - - -
23/06:30pm 26.8 WNW 4 7 1007.7 - 0.0 - - - - - - -
23/06:00pm 28.0 WNW 3 7 1007.5 - 0.0 - - - - - - -
23/05:30pm 28.4 WNW 4 8 1007.6 - 0.0 - - - - - - -
23/05:00pm 28.9 WNW 5 8 1007.4 - 0.0 - - - - - - -
23/04:30pm 29.5 WNW 5 9 1007.2 - 0.0 - - - - - - -
23/04:00pm 29.6 WNW 5 9 1007.1 - 0.0 - - - - - - -
23/03:30pm 28.8 NW 5 10 1007.3 - 0.0 - - - - - - -
23/03:00pm 29.3 WNW 5 9 1007.7 - 0.0 - - - - - - -
23/02:30pm 29.6 NNW 5 11 1007.9 - 0.0 - - - - - - -
23/02:00pm 29.6 NW 5 8 1008.4 - 0.0 - - - - - - -
23/01:30pm 29.1 NW 7 11 1008.8 - 0.0 - - - - - - -
23/01:00pm 29.7 WNW 5 9 1009.2 - 0.0 - - - - - - -
23/12:30pm 29.3 NW 6 11 1009.6 - 0.0 - - - - - - -
23/12:00pm 29.3 WNW 5 9 1010.1 - 0.0 - - - - - - -
23/11:30am 29.1 WNW 5 9 1010.4 - 0.0 - - - - - - -
23/11:00am 29.4 NW 5 9 1010.7 - 0.0 - - - - - - -
23/10:30am 29.0 WNW 4 7 1010.9 - 0.0 - - - - - - -
23/10:00am 28.7 WNW 4 8 1010.8 - 0.0 - - - - - - -
23/09:30am 26.9 WNW 4 7 1010.9 - 0.0 - - - - - - -
23/09:00am 28.0 WNW 3 7 1010.8 - 0.0 - - - - - - -
23/08:30am 26.5 NW 3 6 1010.6 - 0.0 - - - - - - -
23/08:00am 26.4 NW 2 6 1010.2 - 0.0 - - - - - - -
23/07:30am 25.4 NW 3 5 1009.8 - 0.0 - - - - - - -
23/07:00am 24.6 NW 2 4 1009.5 - 0.0 - - - - - - -
23/06:30am 24.8 NNW 4 6 1009.1 - 0.0 - - - - - - -
23/06:00am 24.4 NW 3 6 1009.0 - 0.0 - - - - - - -
23/05:30am 22.9 N 1 3 1008.7 - 0.0 - - - - - - -
23/05:00am 24.1 N 2 4 1008.6 - 0.0 - - - - - - -
23/04:30am 24.3 NNW 2 4 1008.6 - 0.0 - - - - - - -
23/04:00am 24.3 NNW 2 4 1008.5 - 0.0 - - - - - - -
23/03:30am 24.5 NNW 2 4 1008.5 - 0.0 - - - - - - -
23/03:00am 24.8 NNW 2 4 1008.7 - 0.0 - - - - - - -
23/02:30am 25.1 NW 3 5 1008.9 - 0.0 - - - - - - -
23/02:00am 25.4 NW 3 5 1009.2 - 0.0 - - - - - - -
23/01:30am 25.5 NW 4 6 1009.4 - 0.0 - - - - - - -
23/01:00am 25.7 NW 4 6 1009.6 - 0.0 - - - - - - -
23/12:30am 25.8 WNW 4 7 1009.8 - 0.0 - - - - - - -
23/12:00am 25.8 WNW 3 8 1010.0 - 0.0 - - - - - - -
 
Date/Time
CST
Temp
°C
Wind Pressure Rain since
9am
mm
Weather Cloud Vis
km
Sea
Height
m
Swell
Dir  Spd
kts
Gust
kts
hPa Trend Height
m
Period
s
Dir
22/11:30pm 25.9 NW 3 6 1010.0 - 0.0 - - - - - - -
22/11:00pm 25.9 WNW 3 6 1010.0 - 0.0 - - - - - - -
22/10:30pm 25.9 WNW 4 7 1009.9 - 0.0 - - - - - - -
22/10:00pm 26.0 W 4 8 1009.8 - 0.0 - - - - - - -
22/09:30pm 26.0 WNW 4 6 1009.7 - 0.0 - - - - - - -
22/09:00pm 26.0 W 4 7 1009.3 - 0.0 - - - - - - -
22/08:30pm 26.1 W 5 8 1009.0 - 0.0 - - - - - - -
22/08:00pm 26.1 W 5 9 1008.5 - 0.0 - - - - - - -
22/07:30pm 26.2 W 5 9 1008.0 - 0.0 - - - - - - -
22/07:00pm 26.2 W 5 10 1007.6 - 0.0 - - - - - - -
22/06:30pm 26.5 W 5 9 1007.4 - 0.0 - - - - - - -
22/06:00pm 27.4 W 6 9 1007.1 - 0.0 - - - - - - -
22/05:30pm 28.1 W 5 8 1006.9 - 0.0 - - - - - - -
22/05:00pm 28.2 W 4 7 1006.9 - 0.0 - - - - - - -
22/04:30pm 28.5 WNW 5 7 1006.8 - 0.0 - - - - - - -
22/04:00pm 28.9 WNW 4 8 1006.9 - 0.0 - - - - - - -
22/03:30pm 28.9 WNW 5 9 1007.1 - 0.0 - - - - - - -
22/03:00pm 28.9 NW 5 9 1007.4 - 0.0 - - - - - - -
22/02:30pm 28.9 WNW 5 9 1007.7 - 0.0 - - - - - - -
22/02:00pm 28.8 NNW 6 11 1008.1 - 0.0 - - - - - - -
22/01:30pm 29.6 NNW 6 9 1008.5 - 0.0 - - - - - - -
22/01:00pm 29.3 N 6 10 1009.0 - 0.0 - - - - - - -
22/12:30pm 29.4 N 6 11 1009.5 - 0.0 - - - - - - -
22/12:00pm 28.6 N 6 11 1010.0 - 0.0 - - - - - - -
22/11:30am 29.3 N 5 9 1010.4 - 0.0 - - - - - - -
22/11:00am 28.4 N 5 11 1010.9 - 0.0 - - - - - - -
22/10:30am 28.7 N 6 9 1011.0 - 0.0 - - - - - - -
22/10:00am 28.3 N 6 10 1011.0 - 0.0 - - - - - - -
22/09:30am 27.9 N 6 9 1010.9 - 0.0 - - - - - - -
22/09:00am 27.6 N 5 8 1010.7 - 0.0 - - - - - - -
22/08:30am 27.2 N 4 7 1010.4 - 0.0 - - - - - - -
22/08:00am 26.4 N 3 5 1010.3 - 0.0 - - - - - - -
22/07:30am 25.2 N 2 4 1010.1 - 0.0 - - - - - - -
22/07:00am 24.8 N 3 5 1009.7 - 0.0 - - - - - - -
22/06:30am 24.9 N 3 5 1009.3 - 0.0 - - - - - - -
22/06:00am 25.1 NNW 4 6 1009.0 - 0.0 - - - - - - -
22/05:30am 25.1 N 4 7 1008.7 - 0.0 - - - - - - -
22/05:00am 25.1 NNW 3 7 1008.5 - 0.0 - - - - - - -
22/04:30am 25.2 NNW 3 7 1008.5 - 0.0 - - - - - - -
22/04:00am 25.7 NNW 3 6 1008.4 - 0.0 - - - - - - -
22/03:30am 25.1 NW 2 5 1008.4 - 0.0 - - - - - - -
22/03:00am 25.2 NW 2 4 1008.6 - 0.0 - - - - - - -
22/02:30am 25.3 NW 3 5 1008.7 - 0.0 - - - - - - -
22/02:00am 25.1 NW 2 4 1009.0 - 0.0 - - - - - - -
22/01:30am 25.3 WNW 3 5 1009.2 - 0.0 - - - - - - -
22/01:00am 25.5 WNW 2 4 1009.5 - 0.0 - - - - - - -
22/12:30am 25.8 WNW 3 6 1009.9 - 0.0 - - - - - - -
22/12:00am 26.1 WNW 3 5 1010.0 - 0.0 - - - - - - -
 
Date/Time
CST
Temp
°C
Wind Pressure Rain since
9am
mm
Weather Cloud Vis
km
Sea
Height
m
Swell
Dir  Spd
kts
Gust
kts
hPa Trend Height
m
Period
s
Dir
21/11:30pm 26.4 WNW 3 6 1010.1 - 0.0 - - - - - - -
21/11:00pm 26.5 W 3 6 1010.3 - 0.0 - - - - - - -
21/10:30pm 26.5 W 5 8 1010.4 - 0.0 - - - - - - -
21/10:00pm 26.5 W 4 7 1010.4 - 0.0 - - - - - - -
21/09:30pm 26.5 W 5 8 1010.3 - 0.0 - - - - - - -
21/09:00pm 26.4 W 5 9 1010.2 - 0.0 - - - - - - -
21/08:30pm 26.4 WSW 4 7 1009.7 - 0.0 - - - - - - -
21/08:00pm 26.5 W 4 7 1009.4 - 0.0 - - - - - - -
21/07:30pm 26.6 W 4 7 1009.1 - 0.0 - - - - - - -
21/07:00pm 26.7 WNW 3 7 1008.7 - 0.0 - - - - - - -
21/06:30pm 27.1 NNW 2 4 1008.2 - 0.0 - - - - - - -

Other Formats:

Comma delimited format used in spreadsheet applications
http://www.bom.gov.au/fwo/IDD60701/IDD60701.94116.axf

JavaScript Object Notation format (JSON) in row-major order
http://www.bom.gov.au/fwo/IDD60701/IDD60701.94116.json